Wind_Speed
33 37 41 27 17 12 12 15 16 18 19 19 19 19 19 17 16 14 12 11 11 12 10 8 10 10 11 8 10 12 13 12
30 36 34 31 22 18 15 15 16 19 19 19 19 18 16 13 12 11 11 9 10 11 8 7 5 4 10 7 10 12 12 14
18 35 22 20 20 19 18 17 19 20 20 19 18 17 15 14 14 13 10 9 9 6 4 4 1 5 7 9 11 14 16 15
32 31 24 22 20 20 19 20 21 20 17 16 16 14 16 14 12 9 8 7 7 3 2 1 0 2 4 8 11 11 12 10
30 25 23 23 22 22 22 23 22 21 18 14 13 12 12 11 9 5 6 5 4 3 2 2 2 6 9 9 5 7 8 9
25 25 24 24 22 22 22 22 20 17 17 14 11 10 7 6 9 9 4 4 5 6 7 7 10 11 12 10 8 10 12 12
24 24 23 25 22 21 22 22 19 16 15 13 13 11 8 9 11 10 7 4 8 11 13 14 11 10 10 8 9 12 14 15
27 25 27 25 22 20 20 19 18 15 12 12 12 12 10 10 12 12 9 7 9 11 11 11 13 14 14 12 17 17 14 15
29 25 26 22 23 19 19 19 16 10 9 12 11 12 13 10 8 7 6 5 7 9 11 13 14 15 15 16 16 9 10 14
28 29 27 24 26 22 20 18 12 5 4 5 8 8 7 6 5 4 3 7 10 13 15 16 16 19 21 16 13 11 9 11
33 30 28 26 27 25 23 21 9 3 3 7 8 7 7 7 6 4 7 10 12 14 17 19 22 22 18 18 12 7 8 9
33 32 30 27 25 26 27 24 14 7 6 8 9 9 8 5 5 6 9 12 17 19 20 21 20 20 19 15 12 10 12 9
31 30 31 30 31 30 28 26 20 13 11 11 11 8 5 6 8 11 15 20 21 20 19 19 19 19 17 17 18 6 6 9
30 30 31 30 26 25 27 26 20 13 13 11 9 9 10 8 9 14 18 19 19 19 19 20 18 16 16 18 4 16 4 4
30 29 26 26 24 26 27 21 19 19 17 14 14 15 12 10 14 19 20 19 19 19 20 18 16 16 18 14 6 4 16 6
25 25 27 27 26 29 31 28 28 25 19 19 19 16 12 13 18 20 17 19 18 18 17 16 16 15 17 16 14 16 13 8
21 25 26 26 29 30 26 26 23 23 24 21 17 14 13 16 18 17 18 17 17 16 14 13 14 16 16 16 17 20 21 19
19 22 28 31 30 29 28 27 28 29 26 21 16 15 17 18 18 16 15 16 16 15 13 13 15 19 19 19 17 12 14 15
17 22 29 29 28 27 27 30 31 27 24 20 19 19 17 14 14 14 14 15 14 13 14 15 18 15 13 13 12 15 16 15
24 25 26 25 28 28 26 25 23 22 21 19 17 14 13 12 15 14 15 15 14 15 16 15 18 15 16 17 17 16 18 20
Wind_Direction
151 136 122 124 127 130 147 143 138 135 133 134 132 128 125 125 121 113 103 91 83 76 71 72 60 61 27 44 33 20 17 6
112 106 124 136 156 151 142 139 137 138 135 135 132 130 124 121 113 103 91 87 84 79 74 56 26 28 8 9 355 349 347 345
106 124 136 141 146 143 142 140 142 139 137 136 127 120 108 105 105 99 101 101 99 97 91 100 25 325 356 339 343 344 343 343
135 131 143 154 149 144 141 146 142 138 136 132 124 122 122 114 116 112 113 124 147 152 99 76 6 21 354 334 345 352 340 327
156 149 152 156 153 147 146 147 146 144 142 141 144 139 137 137 144 155 154 161 193 203 202 208 287 305 308 319 337 329 326 317
151 153 163 158 152 151 149 154 161 152 155 153 152 145 147 152 172 178 181 220 197 220 251 281 294 295 302 310 308 310 312 310
155 154 158 156 160 156 157 166 167 163 166 164 176 176 180 204 218 218 251 261 253 260 272 284 299 304 304 293 301 306 303 305
157 154 158 163 163 162 168 167 165 174 178 190 185 195 199 228 233 239 267 274 262 267 277 298 307 308 303 292 302 305 300 299
172 169 172 177 175 172 184 180 175 178 191 188 191 215 234 226 218 234 247 252 276 293 301 307 305 301 294 291 311 292 287 284
183 181 181 184 181 186 192 185 177 197 200 200 195 171 158 161 166 189 250 287 291 296 303 304 306 305 313 322 326 300 293 302
183 185 188 190 190 195 201 200 211 245 201 164 160 149 163 182 204 248 286 292 295 306 309 307 308 310 315 316 322 302 296 302
188 191 196 194 196 202 206 205 222 240 228 185 171 180 198 225 280 296 299 308 311 307 304 304 309 311 313 315 312 305 290 291
191 195 196 198 201 205 210 212 221 238 219 200 205 207 227 261 276 299 306 306 303 304 306 309 312 314 316 311 319 273 262 288
198 200 199 201 206 213 214 214 229 231 210 214 226 230 233 244 285 298 299 294 297 303 305 311 315 317 314 321 312 301 199 246
205 206 208 207 204 211 207 217 214 202 208 218 223 236 254 273 294 296 299 302 303 304 306 309 312 310 310 314 310 258 302 274
223 209 209 209 214 197 205 206 199 206 215 217 224 234 246 271 281 287 289 293 293 296 299 302 310 311 310 305 295 291 303 291
214 212 211 210 195 198 203 208 210 212 214 220 227 239 255 266 276 285 289 292 300 306 308 313 313 310 304 300 298 297 295 288
197 207 210 200 199 203 209 216 212 208 212 219 229 237 252 264 276 281 289 300 306 312 321 321 312 306 299 306 309 298 295 289
196 201 191 201 215 206 209 213 216 219 218 217 227 242 258 272 291 297 307 313 312 311 310 311 306 311 309 308 298 295 285 283
197 201 211 204 201 208 210 213 210 207 214 223 242 259 275 286 293 300 314 318 316 305 303 305 309 307 305 308 304 302 290 281
Height
1524 1527 1533 1547 1553 1557 1560 1561 1561 1562 1564 1566 1568 1570 1570 1573 1575 1577 1579 1580 1581 1580 1579 1580 1580 1579 1581 1578 1577 1577 1577 1576
1524 1531 1541 1546 1553 1557 1560 1562 1563 1564 1566 1568 1569 1570 1572 1574 1577 1579 1579 1580 1581 1582 1582 1579 1578 1579 1579 1580 1578 1577 1576 1575
1547 1537 1546 1550 1552 1555 1560 1562 1564 1565 1567 1568 1570 1572 1574 1576 1577 1578 1578 1581 1582 1581 1581 1578 1578 1578 1578 1578 1576 1575 1574 1572
1538 1540 1544 1550 1554 1556 1558 1562 1566 1568 1568 1569 1571 1573 1574 1576 1578 1577 1579 1579 1581 1580 1580 1579 1578 1578 1576 1576 1575 1574 1573 1572
1540 1543 1548 1551 1554 1556 1561 1563 1565 1566 1567 1569 1571 1573 1574 1575 1577 1578 1579 1579 1579 1578 1579 1579 1578 1577 1576 1575 1573 1572 1571 1570
1545 1547 1550 1553 1555 1558 1561 1562 1563 1566 1567 1569 1572 1574 1575 1575 1576 1577 1578 1578 1577 1578 1578 1577 1576 1576 1575 1573 1571 1571 1569 1568
1545 1547 1551 1555 1558 1560 1560 1561 1564 1565 1568 1570 1573 1574 1575 1576 1576 1575 1577 1576 1576 1576 1576 1576 1573 1575 1573 1573 1569 1569 1568 1566
1548 1551 1554 1557 1559 1560 1561 1564 1565 1567 1567 1570 1572 1574 1574 1574 1574 1573 1574 1575 1575 1574 1574 1572 1571 1571 1571 1570 1568 1566 1565 1562
1550 1552 1555 1557 1560 1561 1562 1564 1565 1567 1568 1569 1570 1571 1572 1571 1571 1571 1573 1573 1572 1572 1571 1569 1569 1568 1568 1566 1563 1562 1561 1560
1550 1552 1553 1556 1558 1559 1562 1564 1563 1565 1566 1566 1568 1566 1567 1569 1569 1570 1570 1570 1570 1570 1568 1567 1566 1565 1562 1561 1561 1561 1559 1557
1547 1551 1553 1555 1557 1559 1560 1563 1563 1562 1563 1564 1565 1563 1566 1567 1568 1567 1568 1569 1570 1567 1565 1565 1563 1561 1560 1559 1559 1558 1556 1555
1546 1549 1551 1554 1556 1557 1562 1561 1560 1562 1562 1563 1563 1563 1565 1566 1565 1566 1568 1567 1566 1564 1563 1562 1560 1558 1557 1557 1557 1556 1554 1552
1542 1544 1548 1550 1553 1555 1557 1558 1559 1561 1561 1562 1562 1563 1564 1564 1565 1566 1566 1565 1563 1561 1560 1558 1557 1555 1553 1553 1553 1552 1551 1550
1541 1542 1545 1547 1550 1552 1555 1556 1559 1559 1560 1561 1562 1562 1563 1564 1566 1566 1565 1563 1561 1559 1557 1555 1553 1551 1550 1549 1549 1549 1546 1547
1538 1541 1543 1546 1548 1551 1553 1554 1556 1556 1558 1559 1559 1559 1561 1562 1562 1561 1560 1558 1556 1554 1552 1550 1549 1548 1547 1548 1545 1544 1543 1542
1535 1539 1540 1544 1545 1546 1547 1547 1549 1553 1556 1556 1557 1559 1560 1560 1559 1557 1556 1554 1552 1550 1548 1547 1546 1545 1545 1544 1543 1541 1539 1537
1531 1535 1538 1541 1542 1544 1544 1546 1549 1552 1553 1553 1555 1557 1557 1557 1555 1554 1552 1550 1548 1546 1545 1543 1543 1543 1542 1541 1540 1538 1536 1534
1530 1533 1536 1539 1541 1542 1542 1544 1546 1548 1550 1553 1554 1555 1555 1554 1553 1551 1549 1547 1545 1543 1541 1540 1540 1540 1538 1537 1535 1534 1533 1531
1526 1531 1534 1537 1538 1539 1542 1544 1546 1548 1550 1551 1551 1551 1551 1550 1551 1549 1545 1542 1541 1539 1537 1536 1535 1535 1534 1533 1531 1530 1529 1526
1523 1526 1532 1534 1537 1539 1542 1544 1546 1547 1549 1550 1549 1549 1548 1547 1544 1545 1543 1540 1538 1537 1535 1534 1532 1530 1529 1528 1527 1527 1527 1524